Regional Weather Roundup
Issued by NWS

Home | Current Version | Previous Version | Graphics & Text | Print | Product List | Glossary On
Versions: 1 2 3 4 5 6 7 8 9 10 11 12 13 14 15 16 17 18 19 20 21 22 23 24 25 26 27 28 29 30 31 32 33 34 35 36 37 38 39 40 41 42 43 44 45 46 47 48 49 50
000
ASUS43 KOAX 210202
RWRNE

WEATHER ROUNDUP FOR NEBRASKA
NATIONAL WEATHER SERVICE OMAHA NE
800 PM CST MON FEB 20 2017

NOTES: SATELLITE DATA IS BEING USED TO AUGMENT CLOUD COVER ABOVE
       12000 FEET.
       "FAIR" INDICATES FEW OR NO CLOUDS BELOW 12,000 FEET WITH NO
       SIGNIFICANT WEATHER AND/OR OBSTRUCTIONS TO VISIBILITY.

  * THESE STATIONS DO NOT REPORT WEATHER SUCH AS RAIN...SNOW OR FOG.

NEZ001>004-019>022-054>056-210300-
NEBRASKA PANHANDLE

CITY           SKY/WX    TMP DP  RH WIND       PRES   REMARKS
SCOTTSBLUFF    CLEAR     53  23  31 CALM      29.96R
ALLIANCE       CLEAR     42  25  50 W13       29.92R
CHADRON        CLEAR     48  29  47 SW9G20    29.88S
KIMBALL        CLEAR     42  21  42 W9        30.01R
SIDNEY         CLEAR     41  19  41 CALM      29.99R
$$

NEZ057>060-069>072-079>082-210300-
SOUTHWEST NEBRASKA

CITY           SKY/WX    TMP DP  RH WIND       PRES   REMARKS
NORTH PLATTE   CLEAR     39  27  62 CALM      29.96R
IMPERIAL       CLEAR     44  18  35 SW3       29.99R
LEXINGTON      CLEAR     43  28  55 CALM      29.97S
MCCOOK         CLEAR     47  24  40 CALM      29.97S
OGALLALA       CLEAR     40  18  41 CALM      29.97R
$$

NEZ005>010-023>029-035>040-094-210300-
NORTH CENTRAL NEBRASKA

CITY           SKY/WX    TMP DP  RH WIND       PRES   REMARKS
VALENTINE      CLEAR     37  26  64 S9        29.89R WCI  30
AINSWORTH      CLEAR     39  29  68 S6        29.90S WCI  35
BROKEN BOW     CLEAR     36  27  69 CALM      29.95R
O`NEILL        CLEAR     49  32  53 W5        29.91F
ORD            CLEAR     40  30  67 CALM      29.93R
THEDFORD       PTCLDY    46  27  47 CALM      29.94R
$$

NEZ041-046>049-061>064-073>077-083>087-210300-
SOUTH CENTRAL NEBRASKA

CITY           SKY/WX    TMP DP  RH WIND       PRES   REMARKS
GRAND ISLAND   CLEAR     44  36  73 CALM      29.96S
AURORA         CLEAR     45  36  72 CALM      29.96S
HASTINGS       CLEAR     46  34  62 CALM      29.97S
HEBRON         CLEAR     53  40  60 N10       29.97R
HOLDREGE       CLEAR     46  31  57 CALM      29.98R
KEARNEY *      CLEAR     48  30  49 NW5       29.97S
YORK           CLEAR     45  37  76 CALM      29.95F
$$

NEZ011>018-030>034-042>045-210300-
NORTHEAST NEBRASKA

CITY           SKY/WX    TMP DP  RH WIND       PRES   REMARKS
NORFOLK        CLEAR     45  37  73 SW5       29.91S
ALBION         CLEAR     44  35  70 CALM      29.93S
BLAIR          CLEAR     50  43  77 W3        29.93R
FREMONT        CLEAR     47  40  77 NW5       29.94R
TEKAMAH        CLEAR     49  42  77 NW10      29.92R
WAYNE          CLEAR     38  37  93 S3        29.92S
$$

NEZ050>053-065>068-078-088>093-210300-
SOUTHEAST NEBRASKA

CITY           SKY/WX    TMP DP  RH WIND       PRES   REMARKS
LINCOLN        CLEAR     47  40  76 N5        29.96R
OMAHA EPPLEY   CLEAR     50  42  74 CALM      29.92R
BEATRICE       CLEAR     46  42  83 N9        29.95R
FALLS CITY     CLOUDY    56  52  86 CALM      29.89R
NEBRASKA CITY  CLOUDY    55  45  68 N9        29.91R
PLATTSMOUTH    CLEAR     51  42  72 NW8       29.92R
$$

NEZ044-045-051>053-067-210300-
OMAHA AREA

CITY           SKY/WX    TMP DP  RH WIND       PRES   REMARKS
OMAHA EPPLEY   CLEAR     50  42  74 CALM      29.92R
BLAIR          CLEAR     50  43  77 W3        29.93R
FREMONT        CLEAR     47  40  77 NW5       29.94R
MILLARD        CLEAR     50  45  81 CALM      29.93R
PLATTSMOUTH    CLEAR     51  42  72 NW8       29.92R
WAHOO          FAIR      50  41  69 NW9       29.94R
$$



USA.gov is the U.S. government's official web portal to all federal, state and local government web resources and services.